Theta_e
343 345 349 354 357 357 358 362 362 362 362 362 364 361 360 361 361 363 365 367 368 367 367 367 366 365 365 364 363 362 362 362 362 361 360 360 360 360 360 362 364 363 360 359 360 361 359 357 355 356 358 361 361 360 359 360 361 361 361 360 359 358 358
343 344 348 351 355 357 358 361 364 364 363 363 364 362 361 362 362 364 365 367 369 369 369 368 367 366 366 364 364 363 363 362 363 363 362 362 361 361 360 361 363 363 361 358 358 360 360 359 357 358 359 361 362 362 361 360 362 361 359 359 360 359 358
343 341 344 347 350 357 359 360 363 364 363 363 364 363 363 362 363 364 365 368 370 370 370 368 368 366 365 364 364 364 364 364 364 363 363 362 362 361 360 361 362 363 362 360 358 358 360 362 360 359 359 361 362 363 362 361 362 362 359 359 359 359 359
342 338 341 345 349 357 359 358 362 364 364 363 363 365 364 364 364 365 366 368 370 370 370 369 368 366 365 365 365 364 364 364 365 364 363 363 363 362 361 362 362 363 363 362 360 358 358 361 362 362 360 361 362 363 361 360 360 361 360 360 360 359 359
342 342 343 343 348 356 360 358 360 364 364 362 364 364 364 365 365 365 366 367 369 369 369 369 367 366 365 365 365 364 364 365 365 365 364 363 364 363 362 362 363 363 363 363 362 359 358 360 363 363 363 362 363 362 361 361 360 360 362 360 360 359 359
339 341 343 343 343 350 358 358 359 363 363 362 364 365 364 365 365 365 366 366 367 369 369 368 367 367 366 365 364 365 364 364 365 364 364 365 363 364 363 363 364 364 362 362 362 361 361 360 361 363 363 363 362 360 360 361 360 360 361 361 361 360 359
338 340 341 342 341 347 356 359 358 362 363 362 362 364 364 364 364 363 364 365 366 367 368 368 367 367 367 366 364 365 364 364 365 365 365 365 364 364 365 365 364 364 363 362 361 362 362 362 361 362 364 364 363 360 359 361 361 361 361 362 362 362 360
339 343 342 342 344 347 354 358 358 360 363 362 361 364 364 363 364 363 364 364 364 365 366 365 366 367 368 366 365 365 364 364 365 365 365 365 365 365 366 365 365 364 363 362 361 361 363 364 364 363 363 364 364 362 360 361 363 362 361 362 363 363 362
340 343 342 343 343 344 348 354 358 360 362 363 361 363 364 364 363 364 363 364 363 363 364 363 364 366 367 367 366 366 366 365 365 366 365 365 364 364 364 365 365 365 363 362 362 363 363 363 364 364 364 364 364 364 362 361 363 363 361 361 363 364 362
340 343 344 342 343 345 347 351 359 361 361 365 363 361 363 363 364 363 363 363 362 362 363 363 362 364 367 367 366 366 365 365 365 366 365 364 363 363 364 363 365 365 364 363 361 362 363 364 364 366 366 364 364 365 364 363 363 364 363 362 363 364 363
348 350 349 345 346 349 347 353 363 365 367 369 365 361 362 363 362 362 363 363 363 362 362 361 360 362 366 367 366 365 366 365 365 364 365 364 363 363 363 362 362 363 364 364 361 359 362 364 365 366 367 366 365 364 365 364 364 365 365 363 363 364 364
347 352 353 350 348 350 352 357 366 369 370 369 363 359 361 363 362 361 363 362 362 360 361 361 361 361 364 366 365 364 365 365 364 363 365 365 363 362 362 360 359 360 363 364 361 359 360 364 365 365 367 367 366 365 366 366 365 365 365 364 363 364 364
343 349 353 353 352 353 356 361 363 366 368 365 362 360 360 361 361 361 362 362 361 360 360 361 361 360 362 365 364 364 365 365 364 364 364 365 363 361 361 359 358 358 361 362 363 362 359 362 365 366 367 368 367 365 366 367 366 366 366 365 363 364 364
340 347 351 352 354 357 359 360 362 365 365 362 361 361 359 359 359 360 361 361 360 359 360 361 361 360 363 364 365 365 366 365 365 364 364 364 364 362 360 361 359 357 358 362 363 363 361 361 364 365 366 367 368 367 367 367 367 366 367 366 365 364 365
335 339 345 351 356 359 360 362 363 363 364 363 361 361 360 359 359 359 359 360 359 359 359 359 361 361 363 364 364 366 366 365 366 366 365 363 363 364 362 360 359 358 358 361 364 364 362 362 362 365 367 367 368 368 367 367 367 367 367 367 366 364 364
332 331 336 345 355 361 360 361 364 366 366 366 363 361 360 359 359 358 359 359 358 358 358 357 360 361 362 363 365 366 366 366 366 367 366 364 364 365 364 362 360 360 360 361 362 363 364 363 363 364 366 367 368 368 367 367 367 366 365 366 367 365 364
332 333 334 336 345 357 362 361 363 366 369 368 368 363 361 360 359 358 357 358 357 358 357 357 358 361 361 362 364 365 367 367 367 368 368 366 365 367 367 364 363 362 361 361 362 363 364 364 363 364 365 366 367 367 368 367 367 366 365 364 364 365 365
333 334 335 334 336 344 355 358 361 366 366 363 364 363 360 360 360 359 357 357 356 358 357 356 357 360 361 363 364 365 367 368 368 368 369 368 367 367 368 367 365 364 363 363 363 363 364 365 365 364 363 365 366 367 367 368 367 365 364 363 361 361 364
334 333 334 337 336 335 341 348 354 361 358 356 358 360 359 359 358 359 358 357 356 357 356 356 356 359 362 363 363 366 368 369 369 369 369 370 369 368 369 368 366 365 365 365 364 364 365 365 366 365 364 365 366 366 367 367 367 365 364 363 361 359 360
336 336 336 336 335 336 341 344 347 353 353 351 347 349 352 356 357 358 356 357 356 356 357 356 357 358 362 364 364 366 369 371 370 370 371 371 370 369 368 368 367 366 365 366 365 364 366 366 367 366 366 365 366 367 367 367 367 367 364 362 361 359 359
337 337 336 335 341 350 356 356 354 353 354 352 349 346 347 349 353 356 357 357 356 356 358 359 358 359 362 365 365 365 369 372 372 371 371 372 371 370 369 369 369 368 366 366 366 365 366 367 367 367 366 366 366 366 366 366 365 366 365 363 361 360 358
332 332 334 337 345 354 359 360 358 356 357 357 353 348 346 346 349 353 356 357 356 356 359 361 360 361 362 365 366 366 369 372 373 373 372 372 372 371 370 370 371 369 367 367 366 367 367 367 367 367 366 367 366 364 364 364 364 365 365 365 362 360 359
334 334 340 346 350 355 359 361 362 361 361 362 358 352 349 346 345 349 353 356 356 357 358 359 361 362 362 365 366 367 369 371 372 373 372 372 373 372 370 371 371 370 369 367 367 367 367 366 366 365 365 365 365 364 362 363 363 363 363 364 363 362 360
347 348 352 354 354 357 359 362 366 365 364 364 361 357 356 352 348 349 354 356 356 358 358 360 361 361 362 363 367 368 370 372 372 373 373 372 373 373 371 370 371 371 370 368 367 367 366 366 366 364 364 364 364 363 364 363 363 362 362 362 362 362 359
353 352 354 354 353 357 361 364 367 366 363 361 360 360 360 359 356 353 353 356 357 358 359 360 361 361 360 363 366 369 371 372 373 373 373 373 373 372 372 371 370 371 370 369 368 366 366 366 366 366 366 365 364 363 363 363 363 363 362 362 362 362 360
354 351 352 352 356 360 360 362 365 367 365 365 367 365 363 361 358 355 356 357 357 357 360 359 359 361 362 362 365 369 370 371 372 373 373 373 373 372 372 371 370 370 370 369 368 366 366 366 366 365 366 365 364 363 362 363 363 362 362 361 361 361 360
352 353 351 354 359 361 360 360 365 366 364 365 368 366 364 363 360 357 356 358 357 357 358 360 360 362 363 363 363 367 370 371 371 373 373 373 372 371 370 370 370 370 369 369 368 367 367 367 365 365 366 365 365 364 364 363 363 362 362 361 360 361 360
350 352 352 355 359 360 360 362 365 365 363 365 365 364 363 362 361 359 359 359 359 358 357 360 362 363 364 366 364 366 368 370 371 372 373 372 372 371 370 368 368 369 369 369 368 367 368 368 367 366 366 365 366 366 365 364 363 362 361 361 360 360 359
350 352 353 356 358 358 359 360 363 363 363 362 365 367 367 363 361 362 361 359 361 359 357 359 362 364 366 366 365 366 366 368 371 371 370 370 371 370 370 369 368 369 369 369 368 368 368 368 368 366 366 366 366 365 364 364 362 362 361 361 360 360 359
351 352 353 355 357 356 356 360 362 362 362 362 363 367 369 368 363 363 364 366 367 365 362 360 361 364 365 365 366 366 365 366 369 370 370 371 370 371 371 369 369 369 370 370 369 368 368 368 367 367 366 365 364 364 363 363 363 362 362 361 360 359 359
350 351 352 355 356 355 356 358 359 359 360 361 361 363 367 369 368 368 370 371 370 369 367 364 363 367 367 367 369 367 366 366 368 370 370 371 370 370 371 370 369 369 369 368 367 367 367 367 366 366 367 365 364 363 362 361 362 362 362 361 361 360 359
350 351 352 354 355 355 357 357 357 357 358 358 358 360 362 363 365 367 368 367 367 369 368 367 367 369 369 370 371 369 367 367 369 370 371 370 370 370 369 369 369 368 367 367 366 365 367 365 364 365 366 365 365 365 363 362 361 362 363 363 362 361 359
350 351 352 353 355 355 356 357 358 357 358 357 358 359 359 360 361 362 362 363 365 367 368 367 367 367 367 368 369 369 369 368 367 369 369 369 370 368 367 367 367 367 366 366 365 365 366 365 364 365 365 364 365 364 363 363 362 363 364 365 363 361 359
350 351 352 353 353 354 355 357 357 356 357 357 357 357 358 359 360 360 362 363 364 365 367 367 366 367 368 368 368 368 368 368 368 368 368 368 368 367 367 367 366 365 365 365 365 365 364 364 365 364 363 363 363 364 364 364 364 363 364 365 365 362 359
350 351 352 353 352 352 352 353 354 355 355 356 356 355 356 357 358 359 361 362 363 365 365 365 365 366 367 367 366 367 367 367 366 366 366 367 366 365 366 365 365 365 364 364 365 365 364 365 364 365 365 365 364 364 365 365 365 364 364 364 365 364 361
351 352 353 351 350 351 350 351 352 353 352 352 353 353 354 355 355 356 356 358 361 364 364 366 366 366 366 366 366 365 364 365 364 364 365 365 363 363 364 363 363 364 364 363 365 364 363 363 364 363 363 363 364 365 365 366 365 366 364 363 363 364 362
349 352 352 351 350 351 351 350 351 351 350 350 351 350 351 352 352 353 354 355 357 359 361 362 363 364 364 366 365 364 363 364 365 364 365 364 363 363 364 363 363 362 362 360 361 361 361 360 360 360 360 360 361 361 362 363 363 362 361 361 360 359 359
347 349 350 351 351 352 352 352 351 351 351 351 351 351 351 351 350 350 351 352 353 355 357 357 358 358 359 360 359 360 360 361 362 361 361 362 362 362 362 362 362 362 363 361 359 357 357 356 355 356 356 356 355 354 355 357 357 357 357 357 356 354 353
Wind_Speed
16 16 16 15 17 18 19 20 21 22 27 30 31 34 35 35 34 33 33 35 36 35 35 33 32 32 32 32 31 30 29 27 26 26 26 25 24 23 23 22 21 21 21 20 20 20 20 20 20 20 20 20 20 19 18 18 17 16 15 15 14 14 14
17 16 14 14 15 18 20 20 21 23 27 29 31 33 34 34 35 34 34 35 37 36 36 35 34 34 33 32 31 30 29 28 27 26 25 25 25 25 24 23 22 21 21 21 20 19 20 20 21 21 21 21 21 20 20 19 19 18 17 16 16 15 15
17 15 14 14 16 18 19 20 21 25 28 30 31 33 34 35 37 37 35 35 36 36 36 36 35 34 33 32 31 31 31 29 28 28 27 26 27 26 25 24 23 22 21 21 21 20 19 20 21 22 22 22 21 21 21 20 20 20 18 17 17 17 17
18 18 17 17 18 18 19 20 21 24 29 32 34 35 35 36 36 36 35 36 37 37 36 37 36 35 33 33 32 32 32 31 30 29 28 27 26 26 25 25 24 24 23 22 22 21 20 20 21 22 23 22 22 22 22 21 21 20 19 19 18 18 18
21 20 17 16 17 16 17 19 21 24 29 32 34 35 35 35 34 34 34 35 36 38 38 38 37 35 34 34 33 32 33 34 32 30 29 27 26 26 26 26 26 25 25 23 22 22 22 21 21 22 23 23 23 22 22 22 22 21 20 20 19 19 19
19 18 15 15 14 14 17 20 22 27 30 31 32 33 33 34 35 35 34 34 35 36 37 36 35 35 35 36 35 33 33 34 33 31 29 28 27 27 28 28 27 26 26 24 22 22 23 23 22 22 23 23 23 23 23 23 22 21 21 21 20 20 19
15 15 13 13 14 16 20 20 22 26 29 29 30 31 32 34 35 35 35 34 35 35 36 36 36 35 36 36 34 33 33 34 34 33 31 29 29 29 28 28 28 27 26 25 24 23 23 24 24 23 23 23 23 23 23 23 23 22 21 21 21 21 20
15 15 14 14 15 16 16 17 19 22 25 26 28 30 32 33 34 35 35 35 35 35 36 37 37 37 36 35 34 34 34 34 33 33 32 31 30 30 29 28 29 29 27 26 26 25 25 24 24 24 24 23 23 23 23 23 23 22 22 22 22 21 21
16 17 17 17 18 15 13 14 15 18 22 24 26 28 31 31 32 35 36 35 34 35 37 37 37 37 36 35 35 35 35 33 33 33 33 33 32 31 31 29 29 29 28 28 26 26 26 25 24 24 25 25 24 24 23 23 24 23 23 23 23 23 22
13 15 14 14 14 12 13 14 14 15 17 19 22 25 29 30 31 32 34 34 35 36 37 36 36 35 34 34 35 35 35 34 34 34 35 35 34 33 33 31 30 30 30 29 28 26 26 26 26 25 26 26 26 25 25 25 25 25 24 25 25 24 24
7 8 9 9 9 9 12 13 13 13 13 15 20 25 27 28 29 30 32 34 34 34 35 35 34 34 34 34 34 34 35 35 35 35 36 36 35 34 34 33 32 31 30 30 30 29 28 27 27 27 27 28 28 27 27 27 27 27 26 25 25 26 25
8 6 5 8 9 9 10 11 11 13 12 13 20 23 24 26 28 28 30 32 33 32 33 33 33 33 33 33 33 34 35 36 36 36 36 36 35 34 35 35 33 32 31 31 31 31 30 29 29 29 29 29 29 29 29 28 28 28 27 26 26 26 26
6 6 5 6 8 8 8 9 10 13 12 14 19 22 23 25 27 27 28 30 31 30 31 33 33 33 33 33 33 33 35 35 36 35 35 35 34 34 33 34 34 32 31 30 30 31 31 30 30 30 30 30 30 30 30 30 29 29 29 28 27 27 27
5 8 9 8 8 8 9 8 9 11 12 14 18 21 22 24 25 27 27 28 30 30 30 31 32 33 33 32 32 32 34 35 34 35 35 34 34 34 33 33 33 32 31 30 29 30 30 30 30 29 29 29 29 29 29 30 30 29 29 29 28 27 27
1 6 11 11 8 8 9 9 9 10 12 13 16 19 21 21 23 24 25 26 28 30 30 30 31 32 32 32 32 32 32 32 32 32 33 33 33 34 34 33 32 32 31 30 29 28 29 29 29 28 28 28 28 29 29 29 30 30 30 30 29 28 27
4 4 5 9 9 9 8 9 10 10 11 12 13 16 19 20 21 23 24 25 27 28 29 29 30 32 32 32 32 31 30 31 30 29 30 32 33 33 33 32 32 31 32 31 29 28 27 28 28 28 27 27 28 28 29 30 31 32 34 33 31 29 28
4 5 3 2 5 7 9 9 9 10 11 12 13 16 18 19 21 22 24 25 27 28 28 28 29 31 32 32 31 29 29 30 30 29 30 32 32 32 30 30 30 30 31 31 30 28 27 27 28 28 28 28 28 29 30 31 32 34 37 37 35 32 29
5 5 4 3 2 2 7 10 11 11 12 12 14 17 18 19 20 22 23 25 26 26 27 28 29 30 31 31 29 29 29 29 30 30 30 31 32 31 29 29 29 29 29 30 30 29 28 28 29 29 29 29 29 30 31 31 32 36 39 40 41 38 32
6 5 5 3 4 5 5 6 7 9 9 8 11 14 17 20 21 22 23 23 23 25 27 29 30 29 30 30 29 30 30 30 30 31 30 30 31 30 28 28 30 30 30 30 30 30 30 30 30 30 31 30 30 30 31 31 32 36 40 41 43 44 39
7 6 6 5 5 6 5 3 1 3 4 6 8 10 12 16 19 20 21 21 23 25 27 28 28 28 29 30 31 30 30 29 30 31 30 29 29 29 29 30 32 32 31 30 30 31 32 31 30 30 31 31 30 30 30 31 32 35 39 42 43 45 45
8 7 7 5 4 4 4 4 3 3 5 6 7 8 8 11 15 18 19 21 24 26 25 25 26 26 27 29 30 30 29 29 29 28 27 27 28 29 31 31 31 32 30 28 29 30 30 30 30 30 31 31 30 30 30 31 32 34 37 42 44 44 46
11 10 8 5 4 5 5 5 5 6 6 7 7 8 9 11 12 15 19 21 23 25 25 25 25 25 26 28 30 30 30 28 27 27 27 27 28 29 30 30 30 29 28 27 26 27 28 28 29 29 30 31 30 31 32 32 33 35 36 40 42 43 46
11 8 6 6 7 6 6 6 6 6 6 7 9 10 10 11 12 14 17 19 21 23 25 25 26 27 27 26 28 29 28 27 27 27 27 28 29 30 30 29 27 27 27 27 26 27 28 29 29 30 31 32 32 32 33 32 33 36 36 38 41 43 46
9 7 8 9 8 8 8 7 7 7 8 9 11 11 11 11 12 13 15 18 20 22 24 26 27 28 27 26 26 27 27 27 27 26 27 28 28 28 27 27 26 26 27 27 27 27 27 28 29 30 31 32 33 34 33 32 32 36 37 38 40 43 47
11 10 9 9 9 9 9 10 9 10 11 11 11 11 11 11 12 12 14 17 19 20 23 26 26 27 27 26 25 25 26 26 27 27 27 27 26 25 25 25 25 25 26 27 27 27 27 27 28 29 30 31 32 34 35 33 32 35 37 38 39 43 47
10 10 10 10 10 11 11 10 10 9 9 8 7 7 8 8 11 12 13 15 18 20 22 23 23 23 24 25 24 24 25 26 26 27 26 25 25 24 24 25 25 25 26 27 26 26 26 27 27 28 28 29 30 32 35 34 33 35 38 39 40 43 47
9 9 10 9 10 10 11 10 7 7 8 9 8 7 7 7 8 11 12 13 16 18 18 19 20 20 21 23 24 23 24 24 25 25 25 24 25 25 24 25 25 25 26 25 24 25 25 26 26 26 27 27 28 29 32 34 34 35 38 41 42 44 47
9 9 10 9 9 8 9 8 7 7 8 8 8 7 6 7 7 8 9 11 13 14 13 14 17 19 20 21 23 23 23 23 23 24 24 24 24 24 24 24 23 24 24 24 23 24 24 24 24 24 24 25 27 28 30 32 34 36 38 41 42 43 47
8 8 8 8 7 7 8 8 7 7 8 8 9 9 7 6 8 7 7 9 9 10 11 11 14 17 19 20 21 21 21 21 21 21 21 22 22 22 22 22 22 22 22 22 22 22 22 23 24 23 23 24 25 26 28 29 31 34 37 40 41 43 47
7 7 7 7 7 8 8 6 5 6 6 7 8 9 10 5 5 7 6 5 4 4 8 11 11 14 16 17 18 18 18 19 19 19 19 19 20 21 21 21 21 21 21 21 21 20 21 22 23 24 24 24 24 26 27 28 29 31 35 39 42 43 46
9 8 8 7 6 6 6 5 4 5 5 7 7 8 10 7 2 4 3 4 3 0 3 7 9 10 12 13 14 15 16 16 16 17 16 16 17 18 19 19 19 19 19 20 21 20 20 21 22 22 22 22 24 25 25 26 27 29 32 36 41 44 47
8 7 8 7 5 6 6 4 4 4 4 5 6 6 8 8 4 3 4 3 1 2 2 4 6 8 9 10 11 12 13 14 14 15 15 15 15 16 17 17 18 18 18 19 20 20 19 19 19 19 20 21 22 23 24 25 26 27 29 32 37 42 45
7 6 7 6 5 5 6 3 3 4 4 4 5 6 6 6 4 2 1 0 2 3 2 4 6 7 8 8 9 10 11 12 12 13 14 14 14 15 15 16 17 17 17 18 18 18 18 19 18 18 19 20 21 22 23 23 24 25 25 25 29 36 41
7 6 5 4 3 3 4 3 2 3 4 5 6 6 6 6 5 4 2 1 1 1 3 4 5 6 7 7 7 8 9 10 11 11 12 13 14 14 15 15 16 17 17 18 18 17 18 19 19 19 20 20 20 21 21 21 22 24 24 22 23 29 34
6 5 3 2 2 2 2 2 2 4 6 6 6 6 6 6 6 5 5 4 3 2 3 4 4 5 6 6 7 7 7 8 9 9 10 11 12 13 13 14 14 13 14 15 17 18 18 17 17 18 18 18 19 19 19 20 21 22 23 24 24 28 32
5 4 2 0 1 1 2 2 2 4 5 4 4 5 6 6 6 5 5 5 5 4 4 4 4 5 6 5 4 4 5 6 7 8 8 9 10 11 12 12 13 12 10 9 10 12 14 14 14 15 15 15 17 19 19 19 19 18 19 21 22 26 30
3 1 1 2 2 3 4 5 5 5 5 4 4 5 6 7 7 7 6 6 6 5 5 4 4 5 5 5 7 7 4 2 3 3 3 3 4 5 6 8 11 11 9 9 9 10 12 14 16 18 19 20 22 25 27 27 26 25 27 27 25 24 25
2 3 3 4 5 6 6 6 7 7 7 6 6 7 8 8 7 7 7 7 6 7 6 5 4 5 5 6 8 8 7 6 6 5 3 1 1 1 3 4 5 5 4 5 9 12 13 15 17 19 20 21 22 24 28 30 31 32 34 35 33 31 28
Wind_Direction
216 215 197 191 191 191 191 189 188 191 189 188 188 187 186 185 185 185 184 184 184 185 186 187 188 190 192 194 197 199 202 204 203 203 205 207 208 209 209 210 210 210 210 210 211 211 211 210 207 206 206 205 207 209 209 208 208 208 207 208 211 211 208
204 214 196 190 197 194 191 188 186 189 190 189 190 189 188 186 185 186 185 184 184 184 184 186 187 189 192 194 196 199 201 202 202 202 203 205 206 208 210 211 212 213 213 214 213 213 211 209 206 205 203 203 205 206 207 207 207 207 208 208 211 213 212
191 210 196 190 204 200 190 187 187 189 190 189 189 191 191 189 186 186 185 184 184 184 184 185 187 189 191 192 195 198 200 200 201 202 202 204 205 207 209 211 213 215 214 214 213 213 211 208 206 204 203 202 203 204 205 206 207 207 207 207 210 213 213
188 203 196 190 201 200 188 187 188 189 191 191 190 191 191 190 188 186 186 185 185 185 186 186 188 190 190 191 194 197 199 200 201 203 204 205 206 206 207 209 212 214 214 213 212 212 212 209 206 204 204 203 202 203 204 205 206 207 206 206 210 212 213
189 195 195 191 197 198 190 187 189 189 192 193 191 191 191 189 189 189 189 188 187 187 188 188 189 190 189 191 194 196 198 199 200 202 204 205 206 205 206 209 211 212 212 211 211 211 210 209 207 205 204 203 204 204 204 204 205 206 205 206 209 210 212
186 189 195 194 193 199 197 191 190 191 193 194 192 190 190 189 190 192 192 191 191 190 190 190 190 189 190 192 195 195 197 198 199 201 202 203 205 205 206 207 209 211 210 209 209 209 209 208 208 206 205 204 205 206 205 204 204 204 204 206 208 210 211
181 181 195 202 197 199 200 194 191 192 192 192 192 190 190 191 191 193 193 193 194 193 191 192 191 191 192 194 196 196 196 197 199 200 201 202 204 205 206 206 208 210 209 207 208 208 208 208 207 206 206 206 207 206 206 204 204 203 203 206 208 209 211
181 177 189 203 205 200 199 197 191 189 189 191 191 191 192 194 192 193 195 195 195 195 194 194 193 192 193 193 195 196 196 197 198 199 200 202 204 205 206 206 208 209 207 206 208 208 208 208 207 206 205 206 207 206 206 204 204 203 203 206 208 208 210
183 181 187 196 202 197 194 201 195 184 185 190 193 193 193 195 195 195 196 195 195 197 197 197 196 194 192 191 193 195 196 197 198 199 200 203 205 206 206 206 208 208 207 207 207 207 208 208 206 205 204 205 206 205 205 204 204 205 205 206 208 209 210
181 178 180 192 204 193 180 189 191 183 183 188 194 195 194 197 198 197 197 196 197 199 199 198 198 195 192 192 194 194 195 196 197 199 201 203 206 207 207 207 208 207 207 208 208 207 207 207 207 205 203 204 205 204 204 204 203 205 207 206 207 209 211
129 135 152 183 209 198 180 181 181 180 182 185 191 196 195 197 199 200 199 199 200 200 199 198 198 196 194 194 195 195 195 196 198 200 202 203 206 207 207 208 208 208 207 208 209 208 207 206 205 205 203 203 204 204 204 205 204 205 206 207 207 209 211
85 103 149 183 197 195 189 184 177 177 182 185 190 196 197 197 200 202 201 202 203 201 199 199 198 197 196 196 196 196 196 197 199 201 202 204 206 207 208 209 210 210 208 208 209 209 208 206 204 205 205 203 203 204 204 205 205 206 207 209 209 208 210
112 134 157 179 187 188 192 189 178 178 183 187 192 196 198 199 201 203 202 203 205 203 200 199 199 198 197 197 197 197 198 198 199 201 202 203 205 207 208 210 211 211 210 209 209 209 209 207 204 204 205 204 204 205 205 205 206 207 207 209 210 209 209
150 152 153 164 179 182 188 192 184 180 183 189 195 197 199 201 203 204 204 203 203 204 203 200 199 198 197 197 198 198 199 199 199 200 201 203 205 207 208 209 210 211 211 210 209 209 209 208 206 204 205 205 205 205 205 205 207 208 208 208 210 211 210
204 175 155 153 168 180 184 189 186 184 187 191 196 197 199 203 204 204 206 205 204 205 205 201 199 199 198 197 198 199 199 199 199 199 201 202 204 206 208 208 209 210 210 209 208 208 209 210 208 206 205 206 206 206 207 207 208 209 209 208 209 210 211
278 260 148 140 159 174 178 186 188 187 190 194 197 199 200 202 203 204 205 205 205 206 206 201 198 198 199 199 200 198 196 197 198 198 199 201 204 205 206 207 207 207 208 209 209 208 207 209 210 209 207 207 207 208 209 210 211 211 211 210 209 209 211
285 313 346 112 160 167 167 179 189 191 194 197 199 201 203 203 203 205 205 205 205 206 206 203 199 198 200 202 200 196 194 194 195 196 197 199 202 203 203 203 204 205 207 208 208 208 207 208 210 211 210 209 209 210 212 213 213 213 212 212 212 210 210
298 303 301 301 301 197 173 179 188 193 200 204 202 202 205 204 204 205 207 206 204 203 204 205 203 200 200 202 200 195 194 192 192 194 195 196 199 200 200 200 201 203 205 206 206 206 207 208 209 210 212 211 211 213 216 217 216 214 213 214 214 213 212
291 292 295 306 303 277 235 203 191 192 203 212 208 208 207 205 205 206 207 207 204 202 203 205 205 201 198 200 200 197 195 192 191 193 194 194 196 197 196 197 200 202 204 204 204 205 206 207 207 209 211 212 213 215 217 219 219 217 215 215 216 216 214
297 299 305 308 294 284 293 318 294 227 246 251 242 237 223 210 208 208 206 205 204 204 204 205 205 202 197 198 200 199 196 193 192 193 193 192 192 193 195 198 201 203 203 203 203 204 206 208 207 208 210 212 214 216 218 221 222 220 217 217 217 217 216
298 291 288 292 309 337 359 355 331 298 286 281 273 269 251 226 214 207 205 206 205 206 204 203 205 202 197 196 200 199 197 195 194 193 192 191 191 192 196 199 201 202 203 204 205 205 207 208 208 209 211 212 213 217 221 224 225 223 220 219 218 219 217
280 281 290 306 337 359 1 339 315 302 293 290 284 272 258 245 227 211 207 206 205 205 204 202 204 204 199 197 199 199 198 195 193 192 192 192 193 195 198 200 200 201 201 204 207 208 207 209 212 213 214 214 214 219 224 227 227 225 223 220 219 219 218
281 283 321 351 350 344 338 324 310 302 290 279 272 266 259 253 241 223 212 207 204 203 203 202 204 205 202 198 198 200 199 196 194 194 194 194 195 198 199 200 200 199 200 203 207 209 209 211 215 218 219 218 217 219 224 227 227 227 225 222 219 217 216
343 357 13 5 346 336 336 335 330 319 302 285 274 267 260 254 248 232 216 209 205 202 202 204 205 205 204 201 198 199 199 198 197 196 196 197 199 200 199 199 200 200 201 204 208 211 213 213 216 218 219 220 219 218 222 225 226 227 227 224 220 217 215
2 4 1 345 333 338 341 337 329 312 292 280 273 265 256 251 247 236 219 211 208 203 203 207 207 205 205 202 199 199 200 200 200 200 200 200 200 201 200 200 202 202 203 207 210 212 215 215 217 219 218 220 221 220 221 223 225 226 226 225 222 218 215
352 348 341 333 338 346 337 320 315 308 301 308 310 291 271 251 240 234 221 211 211 209 207 208 207 205 205 203 201 200 200 201 203 202 202 202 201 202 202 202 204 205 205 209 211 213 216 217 219 221 221 221 222 222 221 223 224 225 225 225 224 220 215
339 333 326 328 340 343 326 312 319 323 321 336 339 309 285 264 242 233 221 212 216 218 213 207 204 203 203 203 203 203 201 202 203 201 201 202 201 203 205 204 206 207 207 209 212 213 216 218 220 224 224 224 224 223 223 223 223 224 226 226 225 221 215
331 324 321 324 331 335 328 325 339 337 330 338 335 309 279 252 236 231 220 213 219 225 220 208 201 202 203 203 204 206 204 202 201 199 200 202 202 203 206 207 208 209 208 211 213 214 215 217 220 224 226 227 226 225 226 226 224 224 226 228 226 222 218
323 317 316 314 317 338 340 333 337 338 336 341 341 336 318 258 219 215 216 211 215 224 225 215 203 201 204 206 205 207 206 203 201 199 199 201 201 202 204 206 208 209 209 211 213 214 217 219 222 226 229 230 230 229 230 230 227 225 226 228 228 226 223
323 322 320 314 325 344 337 326 338 343 345 356 357 351 344 319 204 191 197 188 182 219 223 218 207 199 201 205 204 206 207 204 201 201 200 199 199 200 202 204 206 208 208 210 214 219 222 224 226 228 232 235 236 236 235 234 233 231 229 230 231 230 228
318 319 313 306 320 331 315 312 343 343 346 8 15 10 5 9 112 153 119 95 88 106 207 199 196 193 194 198 200 203 205 202 199 200 200 199 198 200 203 204 206 208 209 212 218 223 226 229 230 229 233 238 241 243 243 240 238 237 235 234 234 232 231
306 311 309 307 322 327 310 315 359 356 351 6 19 31 29 29 56 87 55 54 178 215 191 178 182 184 189 192 194 198 200 200 198 199 201 202 201 203 207 209 210 212 214 218 222 224 227 233 235 234 236 239 241 244 246 246 244 242 240 238 236 234 232
302 307 307 312 332 332 318 330 22 24 21 27 31 40 47 47 54 71 68 165 200 194 184 188 187 185 188 190 190 192 196 198 199 199 202 205 206 208 210 212 214 216 217 219 223 224 227 232 236 238 240 242 244 244 245 247 248 245 244 240 235 233 232
299 299 297 312 335 332 335 1 44 55 56 56 50 48 58 63 59 63 78 80 99 147 156 171 180 181 181 179 178 182 188 194 197 199 204 207 209 211 211 209 212 215 217 220 223 226 229 231 232 236 240 244 248 250 250 249 249 247 247 245 238 234 232
295 286 286 338 13 11 13 25 56 74 68 64 63 64 67 67 63 61 65 69 77 105 126 138 152 162 165 169 174 174 177 188 193 197 208 212 212 216 219 219 222 224 224 223 222 225 234 240 240 241 245 248 249 250 252 253 253 253 253 253 251 246 238
295 269 253 194 85 89 99 95 85 83 81 79 85 87 81 76 74 69 64 65 68 80 104 124 138 147 148 142 133 143 167 188 189 191 208 219 217 217 223 230 238 247 258 255 236 232 243 255 261 265 274 279 272 265 266 267 268 271 270 269 270 265 253
323 4 107 125 122 126 137 138 119 101 94 87 86 89 84 78 75 73 71 69 68 74 91 109 126 136 128 93 66 65 83 123 121 129 181 226 236 238 244 242 234 236 258 285 293 286 279 280 281 278 281 288 288 283 279 278 280 283 282 281 284 284 272
27 38 69 96 98 97 106 112 110 106 99 88 81 82 80 75 69 66 68 72 75 80 81 83 101 115 108 93 78 65 59 60 63 66 67 41 14 320 295 285 250 219 221 270 296 299 293 290 290 286 283 287 293 293 290 287 286 286 285 283 284 285 283